timestamp,surface_pressure_avg,surface_temp_avg,battery_voltage,lat,long
2022-12-13 00:09:01+00:00,271.8798,3.9,12.49,47.84626,-54.09684
2022-12-13 00:19:00+00:00,279.5214,3.88,12.49,47.84626,-54.09684
2022-12-13 00:29:00+00:00,284.8597,3.8,12.49,47.84626,-54.09684
2022-12-13 00:39:00+00:00,294.7763,3.8,12.49,47.84626,-54.09684
2022-12-13 00:49:00+00:00,303.7164,3.8,12.49,47.84626,-54.09684
2022-12-13 00:59:00+00:00,304.5515,3.78,12.49,47.84626,-54.09684
2022-12-13 01:09:00+00:00,308.863,3.77,12.49,47.84626,-54.09684
2022-12-13 01:19:00+00:00,314.173,3.78,12.49,47.84626,-54.09684
2022-12-13 01:29:00+00:00,314.5179,3.7,12.49,47.84626,-54.09684
2022-12-13 01:39:00+00:00,313.2764,3.7,12.49,47.84626,-54.09684
2022-12-13 01:49:00+00:00,315.8614,3.7,12.49,47.84626,-54.09684
2022-12-13 01:59:00+00:00,320.178,3.7,12.49,47.84626,-54.09684
2022-12-13 02:09:00+00:00,322.008,3.7,12.49,47.84626,-54.09684
2022-12-13 02:19:00+00:00,319.0965,3.7,12.49,47.84626,-54.09684
2022-12-13 02:29:00+00:00,320.5363,3.7,12.49,47.84626,-54.09684
2022-12-13 02:39:00+00:00,325.4896,3.7,12.49,47.84626,-54.09684
2022-12-13 02:49:00+00:00,324.8664,3.7,12.49,47.84626,-54.09684
2022-12-13 02:59:00+00:00,310.6364,3.66,12.49,47.84626,-54.09684
2022-12-13 03:09:00+00:00,309.108,3.64,12.49,47.84626,-54.09684
2022-12-13 03:19:00+00:00,317.443,3.63,12.49,47.84626,-54.09684
2022-12-13 03:29:00+00:00,318.6896,3.68,12.49,47.84626,-54.09684
2022-12-13 03:39:00+00:00,307.7397,3.68,12.49,47.84626,-54.09684
2022-12-13 03:49:00+00:00,306.7347,3.6,12.49,47.84626,-54.09684
2022-12-13 03:59:00+00:00,306.9897,3.6,12.49,47.84626,-54.09684
2022-12-13 04:09:00+00:00,308.3864,3.68,12.49,47.84626,-54.09684
2022-12-13 04:19:00+00:00,308.248,3.7,12.49,47.84626,-54.09684
2022-12-13 04:29:00+00:00,313.5797,3.69,12.49,47.84626,-54.09684
2022-12-13 04:39:00+00:00,312.3397,3.68,12.49,47.84626,-54.09684
2022-12-13 04:49:00+00:00,302.8864,3.7,12.49,47.84626,-54.09684
2022-12-13 04:59:00+00:00,300.5581,3.78,12.49,47.84626,-54.09684
2022-12-13 05:09:00+00:00,303.8231,3.8,12.49,47.84626,-54.09684
2022-12-13 05:19:00+00:00,295.9047,3.85,12.49,47.84626,-54.09684
2022-12-13 05:29:00+00:00,281.6331,3.8,12.49,47.84626,-54.09684
2022-12-13 05:39:00+00:00,279.6647,3.8,12.49,47.84626,-54.09684
2022-12-13 05:49:00+00:00,280.4265,3.8,12.49,47.84626,-54.09684
2022-12-13 05:59:00+00:00,268.0581,3.8,12.49,47.84626,-54.09684
2022-12-13 06:09:00+00:00,259.923,3.8,12.49,47.84626,-54.09684
2022-12-13 06:19:00+00:00,260.0347,3.78,12.49,47.84626,-54.09684
2022-12-13 06:29:00+00:00,251.3581,3.7,12.49,47.84626,-54.09684
2022-12-13 06:39:00+00:00,239.3297,3.7,12.49,47.84626,-54.09684
2022-12-13 06:49:00+00:00,241.5714,3.73,12.49,47.84626,-54.09684
2022-12-13 06:59:00+00:00,245.7064,3.74,12.49,47.84626,-54.09684
2022-12-13 07:09:00+00:00,235.8531,3.78,12.49,47.84626,-54.09684
2022-12-13 07:19:00+00:00,226.208,3.8,12.49,47.84626,-54.09684
2022-12-13 07:29:00+00:00,228.0114,3.8,12.49,47.84626,-54.09684
2022-12-13 07:39:00+00:00,227.0314,3.8,12.49,47.84626,-54.09684
2022-12-13 07:49:00+00:00,218.0531,3.8,12.49,47.84626,-54.09684
2022-12-13 07:59:00+00:00,213.6397,3.8,12.49,47.84626,-54.09684
2022-12-13 08:09:00+00:00,218.9981,3.8,12.49,47.84626,-54.09684
2022-12-13 08:19:00+00:00,222.7747,3.8,12.49,47.84626,-54.09684
2022-12-13 08:29:00+00:00,223.3981,3.8,12.49,47.84626,-54.09684
2022-12-13 08:39:00+00:00,224.13299999999998,3.8,12.49,47.84626,-54.09684
2022-12-13 08:49:00+00:00,227.5064,3.8,12.49,47.84626,-54.09684
2022-12-13 08:59:00+00:00,230.0897,3.8,12.49,47.84626,-54.09684
2022-12-13 09:09:00+00:00,230.7747,3.8,12.49,47.84626,-54.09684
2022-12-13 09:19:00+00:00,234.5364,3.8,12.49,47.84626,-54.09684
2022-12-13 09:29:00+00:00,235.5847,3.8,12.49,47.84626,-54.09684
2022-12-13 09:39:00+00:00,241.1531,3.8,12.49,47.84626,-54.09684
2022-12-13 09:49:00+00:00,247.9997,3.8,12.49,47.84626,-54.09684
2022-12-13 09:59:00+00:00,250.5297,3.8,12.49,47.84626,-54.09684
2022-12-13 10:09:00+00:00,250.8964,3.8,12.49,47.84626,-54.09684
2022-12-13 10:19:00+00:00,258.178,3.8,12.49,47.84626,-54.09684
2022-12-13 10:29:00+00:00,267.178,3.8,12.49,47.84626,-54.09684
2022-12-13 10:39:00+00:00,273.1147,3.8,12.49,47.84626,-54.09684
2022-12-13 10:49:00+00:00,276.6114,3.79,12.49,47.84626,-54.09684
2022-12-13 10:59:00+00:00,281.328,3.8,12.49,47.84626,-54.09684
2022-12-13 11:09:00+00:00,280.3747,3.8,12.49,47.84626,-54.09684
2022-12-13 11:19:00+00:00,280.0114,3.79,12.49,47.84626,-54.09684
2022-12-13 11:29:00+00:00,287.5647,3.8,12.49,47.84626,-54.09684
2022-12-13 11:39:00+00:00,296.6597,3.8,12.49,47.84626,-54.09684
2022-12-13 11:49:00+00:00,291.7497,3.74,12.49,47.84626,-54.09684
2022-12-13 11:59:00+00:00,298.2697,3.7,12.49,47.84626,-54.09684
2022-12-13 12:09:00+00:00,311.5247,3.7,12.49,47.84626,-54.09684
2022-12-13 12:19:00+00:00,318.548,3.7,12.49,47.84626,-54.09684
2022-12-13 12:29:00+00:00,314.5746,3.7,12.49,47.84626,-54.09684
2022-12-13 12:39:00+00:00,314.8447,3.7,12.49,47.84626,-54.09684
2022-12-13 12:49:00+00:00,328.6446,3.72,12.49,47.84626,-54.09684
2022-12-13 12:59:00+00:00,335.2729,3.7,12.49,47.84626,-54.09684
2022-12-13 13:09:00+00:00,340.5429,3.7,12.49,47.84626,-54.09684
2022-12-13 13:19:00+00:00,349.6979,3.71,12.49,47.84626,-54.09684
2022-12-13 13:29:00+00:00,354.8097,3.7,12.49,47.84626,-54.09684
2022-12-13 13:39:00+00:00,357.8246,3.7,12.49,47.84626,-54.09684
2022-12-13 13:49:00+00:00,358.5163,3.73,12.49,47.84626,-54.09684
2022-12-13 13:59:00+00:00,359.6296,3.76,12.49,47.84626,-54.09684
2022-12-13 14:09:00+00:00,361.5696,3.77,12.49,47.84626,-54.09684
2022-12-13 14:19:00+00:00,369.413,3.78,12.57,47.84626,-54.09684
2022-12-13 14:29:00+00:00,370.1478,3.79,12.57,47.84626,-54.09684
2022-12-13 14:39:00+00:00,366.5095,3.79,12.57,47.84626,-54.09684
2022-12-13 14:49:00+00:00,372.9429,3.79,12.57,47.84626,-54.09684
2022-12-13 14:59:00+00:00,380.1929,3.78,12.57,47.84626,-54.09684
2022-12-13 15:09:00+00:00,369.1863,3.72,12.57,47.84626,-54.09684
2022-12-13 15:19:00+00:00,359.6179,3.7,12.57,47.84626,-54.09684
2022-12-13 15:29:00+00:00,379.0463,3.74,12.57,47.84626,-54.09684
2022-12-13 15:39:00+00:00,379.9662,3.7,12.57,47.84626,-54.09684
2022-12-13 15:49:00+00:00,364.1863,3.7,12.57,47.84626,-54.09684
2022-12-13 15:59:00+00:00,361.9412,3.73,12.57,47.84626,-54.09684
2022-12-13 16:09:00+00:00,369.4279,3.74,12.57,47.84626,-54.09684
2022-12-13 16:19:00+00:00,362.5796,3.76,12.57,47.84626,-54.09684
2022-12-13 16:29:00+00:00,353.8962,3.79,12.57,47.84626,-54.09684
2022-12-13 16:39:00+00:00,356.0979,3.79,12.57,47.84626,-54.09684
2022-12-13 16:49:00+00:00,355.2095,3.8,12.57,47.84626,-54.09684
2022-12-13 16:59:00+00:00,348.593,3.8,12.57,47.84626,-54.09684
2022-12-13 17:09:00+00:00,341.8180000000001,3.8,12.57,47.84626,-54.09684
2022-12-13 17:19:00+00:00,341.1913,3.8,12.57,47.84626,-54.09684
2022-12-13 17:29:00+00:00,332.4430000000001,3.84,12.57,47.84626,-54.09684
2022-12-13 17:39:00+00:00,326.118,3.87,12.57,47.84626,-54.09684
2022-12-13 17:49:00+00:00,327.9563,3.87,12.57,47.84626,-54.09684
2022-12-13 17:59:00+00:00,322.7813,3.9,12.57,47.84626,-54.09684
2022-12-13 18:09:00+00:00,313.0797,3.9,12.57,47.84626,-54.09684
2022-12-13 18:19:01+00:00,311.0213,3.9,12.57,47.84626,-54.09684
2022-12-13 18:29:01+00:00,307.2297,3.9,12.57,47.84626,-54.09684
2022-12-13 18:39:01+00:00,295.9414,3.9,12.57,47.84626,-54.09684
2022-12-13 18:49:01+00:00,287.6597,3.9,12.57,47.84626,-54.09684
2022-12-13 18:59:01+00:00,280.6764,3.91,12.57,47.84626,-54.09684
2022-12-13 19:09:01+00:00,273.6597,3.9,12.57,47.84626,-54.09684
2022-12-13 19:19:01+00:00,268.6564,3.9,12.49,47.84626,-54.09684
2022-12-13 19:29:01+00:00,266.9197,3.95,12.49,47.84626,-54.09684
2022-12-13 19:39:01+00:00,259.8114,3.92,12.49,47.84626,-54.09684
2022-12-13 19:49:01+00:00,249.7448,3.98,12.49,47.84626,-54.09684
2022-12-13 19:59:01+00:00,239.6297,3.9,12.49,47.84626,-54.09684
2022-12-13 20:09:01+00:00,232.8648,3.96,12.49,47.84626,-54.09684
2022-12-13 20:19:00+00:00,233.9814,4.0,12.49,47.84626,-54.09684
2022-12-13 20:29:00+00:00,240.3114,4.0,12.49,47.84626,-54.09684
2022-12-13 20:39:00+00:00,241.1031,4.0,12.49,47.84626,-54.09684
2022-12-13 20:49:00+00:00,236.3897,3.99,12.49,47.84626,-54.09684
2022-12-13 20:59:00+00:00,237.0281,4.0,12.49,47.84626,-54.09684
2022-12-13 21:09:00+00:00,248.2514,3.99,12.49,47.84626,-54.09684
2022-12-13 21:19:00+00:00,251.2031,4.0,12.49,47.84626,-54.09684
2022-12-13 21:29:00+00:00,246.2231,4.0,12.49,47.84626,-54.09684
2022-12-13 21:39:00+00:00,249.6898,4.0,12.49,47.84626,-54.09684
2022-12-13 21:49:00+00:00,259.2714,4.0,12.49,47.84626,-54.09684
2022-12-13 21:59:00+00:00,257.4598,4.0,12.49,47.84626,-54.09684
2022-12-13 22:09:00+00:00,253.7998,4.0,12.49,47.84626,-54.09684
2022-12-13 22:19:01+00:00,259.1214,4.0,12.49,47.84626,-54.09684
2022-12-13 22:29:01+00:00,262.9398,4.0,12.49,47.84626,-54.09684
2022-12-13 22:39:01+00:00,259.0614,4.0,12.49,47.84626,-54.09684
2022-12-13 22:49:01+00:00,254.7914,4.06,12.49,47.84626,-54.09684
2022-12-13 22:59:01+00:00,259.3748,4.09,12.49,47.84626,-54.09684
2022-12-13 23:09:01+00:00,264.6514,4.05,12.49,47.84626,-54.09684
2022-12-13 23:19:00+00:00,263.063,4.07,12.49,47.84626,-54.09684
2022-12-13 23:29:00+00:00,258.6082,4.1,12.49,47.84626,-54.09684
2022-12-13 23:39:00+00:00,262.7097,4.1,12.49,47.84626,-54.09684
2022-12-13 23:49:00+00:00,269.3231,4.1,12.49,47.84626,-54.09684
2022-12-13 23:59:00+00:00,267.6314,4.1,12.49,47.84626,-54.09684
